EW8275 Weather Reports


Display with metric or nautical units.
time (UTC)temp
F
wind
direction
speed
MPH
gust
MPH
rain 1hr
in
rain 24hr
in
rain mn
in
humidity
%
barometer
mb
20260510234538 48 59 3.0 8.0 0.00 0.00 0.00 75 1009.1
20260510234047 48 5 5.0 8.0 0.00 0.00 0.00 74 1009.1
20260510233606 48 43 5.0 8.0 0.00 0.00 0.00 75 1009.1
20260510233056 48 63 2.0 8.0 0.00 0.00 0.00 75 1009.2
20260510232555 48 46 4.0 8.0 0.00 0.00 0.00 74 1009.3
20260510232055 48 18 4.0 7.0 0.00 0.00 0.00 75 1009.3
20260510231537 48 47 2.0 7.0 0.00 0.00 0.00 75 1009.4
20260510231043 48 10 3.0 7.0 0.00 0.00 0.00 75 1009.5
20260510230543 48 12 4.0 8.0 0.00 0.00 0.00 74 1009.5
20260510230055 49 11 3.0 10.0 0.00 0.00 0.00 74 1009.6
20260510225553 49 37 5.0 10.0 0.00 0.00 0.00 74 1009.6
20260510225022 49 24 4.0 9.0 0.00 0.00 0.00 74 1009.7
20260510224538 49 22 5.0 9.0 0.00 0.00 0.00 74 1009.7
20260510224058 49 17 5.0 9.0 0.00 0.00 0.00 74 1009.7
20260510223531 49 36 3.0 10.0 0.00 0.00 0.00 75 1009.7
20260510223058 49 346 5.0 10.0 0.00 0.00 0.00 75 1009.7
20260510222547 49 54 3.0 8.0 0.00 0.00 0.00 75 1009.7
20260510222056 49 5 3.0 9.0 0.00 0.00 0.00 75 1009.7
20260510221544 49 30 2.0 9.0 0.00 0.00 0.00 75 1009.7
20260510221027 49 37 4.0 9.0 0.00 0.00 0.00 75 1009.8
20260510220537 49 19 4.0 8.0 0.00 0.00 0.00 75 1009.8
20260510220050 49 18 3.0 8.0 0.00 0.00 0.00 75 1009.9
20260510215536 49 327 4.0 10.0 0.00 0.00 0.00 75 1010.0
20260510215057 49 5 5.0 13.0 0.00 0.00 0.00 76 1010.1
20260510214547 49 355 4.0 13.0 0.00 0.00 0.00 76 1010.1
20260510214038 49 355 4.0 9.0 0.00 0.00 0.00 76 1010.1
20260510213537 50 35 4.0 10.0 0.00 0.00 0.00 76 1010.1
20260510213029 50 360 5.0 10.0 0.00 0.00 0.00 76 1010.2
20260510212531 50 341 4.0 10.0 0.00 0.00 0.00 76 1010.3
20260510212030 50 5 5.0 10.0 0.00 0.00 0.00 76 1010.3
20260510211533 50 355 6.0 9.0 0.00 0.00 0.00 76 1010.4
20260510211040 50 336 5.0 10.0 0.00 0.00 0.00 75 1010.4
20260510210531 50 57 5.0 10.0 0.00 0.00 0.00 75 1010.4
20260510210029 50 5 4.0 9.0 0.00 0.00 0.00 75 1010.4
20260510205609 50 355 4.0 10.0 0.00 0.00 0.00 75 1010.5
20260510205055 50 348 5.0 12.0 0.00 0.00 0.00 75 1010.5
20260510204537 50 355 6.0 12.0 0.00 0.00 0.00 75 1010.5
20260510204038 50 69 5.0 12.0 0.00 0.00 0.00 75 1010.6
20260510203603 50 342 3.0 10.0 0.00 0.00 0.00 75 1010.6
20260510203039 50 30 5.0 10.0 0.00 0.00 0.00 75 1010.6
20260510202555 51 55 5.0 10.0 0.00 0.00 0.00 75 1010.5
20260510202043 51 32 4.0 10.0 0.00 0.00 0.00 74 1010.6
20260510201545 51 49 4.0 12.0 0.00 0.00 0.00 74 1010.8
20260510201059 51 34 5.0 10.0 0.00 0.00 0.00 74 1010.9
20260510200606 51 35 4.0 10.0 0.00 0.00 0.00 74 1010.9
20260510200058 51 65 5.0 14.0 0.00 0.00 0.00 74 1010.9
20260510195534 51 327 7.0 14.0 0.00 0.00 0.00 74 1010.9
20260510195044 51 13 5.0 13.0 0.00 0.00 0.00 74 1010.9
20260510194538 51 67 6.0 11.0 0.00 0.00 0.00 74 1010.9
20260510194041 51 302 4.0 12.0 0.00 0.00 0.00 74 1010.8
20260510193537 51 5 5.0 12.0 0.00 0.00 0.00 74 1010.9
20260510193116 51 15 6.0 13.0 0.00 0.00 0.00 73 1010.9
20260510192543 51 5 5.0 13.0 0.00 0.00 0.00 73 1010.9
20260510192024 52 53 5.0 17.0 0.00 0.00 0.00 73 1010.9
20260510191545 52 355 6.0 17.0 0.00 0.00 0.00 73 1010.9
20260510191050 52 5 6.0 12.0 0.00 0.00 0.00 73 1010.9
20260510190534 52 46 5.0 14.0 0.00 0.00 0.00 73 1010.8
20260510190054 52 314 8.0 18.0 0.00 0.00 0.00 72 1010.9
20260510185550 52 53 7.0 13.0 0.00 0.00 0.00 72 1011.0
20260510185039 53 336 7.0 14.0 0.00 0.00 0.00 72 1011.1
20260510184623 53 17 8.0 14.0 0.00 0.00 0.00 72 1011.0
20260510184039 53 68 8.0 13.0 0.00 0.00 0.00 72 1011.1
20260510183535 53 42 4.0 18.0 0.00 0.00 0.00 72 1011.0
20260510183039 53 21 9.0 18.0 0.00 0.00 0.00 71 1011.0
20260510182546 53 18 6.0 16.0 0.00 0.00 0.00 71 1011.0
20260510182050 54 5 6.0 15.0 0.00 0.00 0.00 72 1011.0
20260510181557 54 58 7.0 15.0 0.00 0.00 0.00 71 1011.0
20260510181119 54 24 7.0 14.0 0.00 0.00 0.00 71 1011.0
20260510180557 54 42 7.0 14.0 0.00 0.00 0.00 70 1011.1
20260510180030 55 9 7.0 13.0 0.00 0.00 0.00 70 1011.1
20260510175540 55 10 7.0 14.0 0.00 0.00 0.00 70 1011.2
20260510175028 55 22 6.0 15.0 0.00 0.00 0.00 70 1011.2
20260510174542 55 30 7.0 18.0 0.00 0.00 0.00 70 1011.2
20260510174028 55 23 6.0 18.0 0.00 0.00 0.00 70 1011.2
20260510173540 55 28 6.0 15.0 0.00 0.00 0.00 69 1011.3
20260510173034 56 37 5.0 15.0 0.00 0.00 0.00 70 1011.3
20260510172548 56 333 6.0 15.0 0.00 0.00 0.00 70 1011.2
20260510172051 56 20 6.0 13.0 0.00 0.00 0.00 70 1011.3
20260510171546 56 355 4.0 16.0 0.00 0.00 0.00 70 1011.3
20260510171030 56 24 8.0 19.0 0.00 0.00 0.00 69 1011.2
20260510170600 56 34 7.0 19.0 0.00 0.00 0.00 68 1011.2
20260510170043 57 49 8.0 19.0 0.00 0.00 0.00 69 1011.2
20260510165547 57 13 8.0 16.0 0.00 0.00 0.00 69 1011.3
20260510165046 57 347 9.0 16.0 0.00 0.00 0.00 69 1011.2
20260510164608 57 336 9.0 18.0 0.00 0.00 0.00 68 1011.3
20260510164037 57 334 8.0 18.0 0.00 0.00 0.00 67 1011.3
20260510163537 58 64 5.0 15.0 0.00 0.00 0.00 68 1011.4
20260510163040 58 14 8.0 15.0 0.00 0.00 0.00 67 1011.4
20260510162554 58 51 7.0 14.0 0.00 0.00 0.00 67 1011.6
20260510162037 58 14 5.0 14.0 0.00 0.00 0.00 66 1011.6
20260510161542 59 54 7.0 15.0 0.00 0.00 0.00 66 1011.6
20260510161035 59 28 7.0 15.0 0.00 0.00 0.00 65 1011.7
20260510160542 60 22 7.0 13.0 0.00 0.00 0.00 65 1011.7
20260510160030 60 62 5.0 16.0 0.00 0.00 0.00 64 1011.8
20260510155535 60 61 7.0 16.0 0.00 0.00 0.00 64 1011.9
20260510155057 60 360 7.0 14.0 0.00 0.00 0.00 63 1011.9
20260510154608 60 351 7.0 14.0 0.00 0.00 0.00 63 1011.9
20260510154039 61 34 4.0 15.0 0.00 0.00 0.00 63 1011.9
20260510153550 61 57 6.0 15.0 0.00 0.00 0.00 63 1011.9
20260510153036 61 28 5.0 15.0 0.00 0.00 0.00 62 1011.9
20260510152551 61 5 7.0 15.0 0.00 0.00 0.00 59 1012.0
20260510152035 61 5 5.0 17.0 0.00 0.00 0.00 61 1011.9
20260510151543 61 12 4.0 17.0 0.00 0.00 0.00 61 1012.0
20260510151036 61 350 6.0 17.0 0.00 0.00 0.00 60 1012.0
20260510150529 62 26 7.0 17.0 0.00 0.00 0.00 59 1012.1
20260510150034 62 23 6.0 17.0 0.00 0.00 0.00 59 1012.1
20260510145540 62 360 6.0 15.0 0.00 0.00 0.00 58 1012.3
20260510145029 62 15 5.0 16.0 0.00 0.00 0.00 61 1012.2
20260510144606 61 331 6.0 17.0 0.00 0.00 0.00 59 1012.2
20260510144044 62 15 9.0 17.0 0.00 0.00 0.00 58 1012.4
20260510143540 62 5 4.0 14.0 0.00 0.00 0.00 57 1012.4
20260510143056 62 38 5.0 16.0 0.00 0.00 0.00 58 1012.5
20260510142534 63 15 8.0 16.0 0.00 0.00 0.00 56 1012.5
20260510142056 63 317 6.0 12.0 0.00 0.00 0.00 57 1012.6
20260510141543 63 57 5.0 13.0 0.00 0.00 0.00 58 1012.5
20260510141038 62 342 5.0 15.0 0.00 0.00 0.00 57 1012.5
20260510140553 62 344 8.0 15.0 0.00 0.00 0.00 57 1012.5
20260510140035 62 53 5.0 14.0 0.00 0.00 0.00 57 1012.6
20260510135554 63 45 5.0 10.0 0.00 0.00 0.00 55 1012.7
20260510135046 64 342 3.0 11.0 0.00 0.00 0.00 57 1012.8
20260510134531 63 30 3.0 14.0 0.00 0.00 0.00 58 1012.9
20260510134024 63 22 4.0 11.0 0.00 0.00 0.00 55 1013.0
20260510133547 64 338 5.0 12.0 0.00 0.00 0.00 55 1013.0
20260510133056 64 37 7.0 12.0 0.00 0.00 0.00 56 1013.0
20260510132608 64 20 6.0 12.0 0.00 0.00 0.00 57 1013.1
20260510132036 64 351 6.0 13.0 0.00 0.00 0.00 58 1013.0
20260510131547 64 15 6.0 14.0 0.00 0.00 0.00 57 1013.0
20260510131029 63 5 5.0 15.0 0.00 0.00 0.00 57 1013.1
20260510130546 64 22 8.0 15.0 0.00 0.00 0.00 58 1013.2
20260510130030 64 17 5.0 17.0 0.00 0.00 0.00 58 1013.3
20260510125538 64 28 6.0 19.0 0.00 0.00 0.00 55 1013.2
20260510125036 64 32 5.0 19.0 0.00 0.00 0.00 56 1013.2
20260510124533 64 76 6.0 12.0 0.00 0.00 0.00 55 1013.4
20260510124041 64 304 6.0 15.0 0.00 0.00 0.00 54 1013.5
20260510123548 64 360 7.0 15.0 0.00 0.00 0.00 54 1013.5
20260510123030 65 24 5.0 13.0 0.00 0.00 0.00 53 1013.6
20260510122604 65 11 5.0 13.0 0.00 0.00 0.00 54 1013.6
20260510122054 65 56 6.0 13.0 0.00 0.00 0.00 54 1013.7
20260510121543 65 343 7.0 15.0 0.00 0.00 0.00 54 1013.7
20260510121046 64 49 6.0 15.0 0.00 0.00 0.00 55 1013.7
20260510120548 65 26 4.0 13.0 0.00 0.00 0.00 54 1013.8
20260510120036 64 101 7.0 13.0 0.00 0.00 0.00 54 1013.8
20260510115530 65 5 4.0 10.0 0.00 0.00 0.00 53 1013.8
20260510115037 65 323 4.0 10.0 0.00 0.00 0.00 54 1013.9
20260510114556 64 5 5.0 14.0 0.00 0.00 0.00 55 1014.0
20260510114038 64 19 6.0 14.0 0.00 0.00 0.00 55 1014.0
20260510113549 65 180 5.0 12.0 0.00 0.00 0.00 57 1014.0
20260510113043 65 355 5.0 12.0 0.00 0.00 0.00 56 1014.0
20260510112546 65 26 5.0 14.0 0.00 0.00 0.00 58 1014.1
20260510112036 64 14 7.0 14.0 0.00 0.00 0.00 57 1014.1
20260510111535 64 12 5.0 11.0 0.00 0.00 0.00 59 1014.1
20260510111055 63 24 4.0 13.0 0.00 0.00 0.00 62 1014.2
20260510110539 62 22 6.0 14.0 0.00 0.00 0.00 62 1014.3
20260510110026 63 13 7.0 14.0 0.00 0.00 0.00 61 1014.4
20260510105550 62 360 5.0 12.0 0.00 0.00 0.00 60 1014.3
20260510105042 63 282 5.0 12.0 0.00 0.00 0.00 60 1014.4
20260510104537 64 18 6.0 12.0 0.00 0.00 0.00 59 1014.4
20260510104056 63 24 5.0 12.0 0.00 0.00 0.00 59 1014.5
20260510103533 62 340 6.0 12.0 0.00 0.00 0.00 61 1014.5
20260510103037 62 336 6.0 11.0 0.00 0.00 0.00 61 1014.6
20260510102602 63 11 6.0 11.0 0.00 0.00 0.00 60 1014.5
20260510102046 64 28 5.0 11.0 0.00 0.00 0.00 61 1014.5
20260510101542 63 5 4.0 9.0 0.00 0.00 0.00 63 1014.5
20260510101104 63 287 4.0 10.0 0.00 0.00 0.00 61 1014.6
20260510100541 63 9 4.0 11.0 0.00 0.00 0.00 60 1014.6
20260510100035 62 25 4.0 11.0 0.00 0.00 0.00 65 1014.6
20260510095557 61 9 3.0 13.0 0.00 0.00 0.00 63 1014.7
20260510095105 62 68 5.0 13.0 0.00 0.00 0.00 63 1014.7
20260510094608 62 333 7.0 12.0 0.00 0.00 0.00 63 1014.8
20260510094055 62 288 3.0 11.0 0.00 0.00 0.00 63 1014.8
20260510093540 62 281 4.0 11.0 0.00 0.00 0.00 64 1014.9
20260510093030 63 349 3.0 9.0 0.00 0.00 0.00 62 1014.8
20260510092557 62 288 3.0 9.0 0.00 0.00 0.00 62 1014.8
20260510092042 62 33 5.0 9.0 0.00 0.00 0.00 63 1014.8
20260510091552 61 53 5.0 10.0 0.00 0.00 0.00 64 1014.9
20260510091040 61 44 4.0 11.0 0.00 0.00 0.00 64 1014.9
20260510090539 60 338 7.0 11.0 0.00 0.00 0.00 66 1014.9
20260510090035 61 321 5.0 11.0 0.00 0.00 0.00 64 1014.9
20260510085617 61 337 4.0 12.0 0.00 0.00 0.00 64 1014.9
20260510085041 61 332 5.0 9.0 0.00 0.00 0.00 62 1014.9
20260510084542 61 103 4.0 8.0 0.00 0.00 0.00 62 1015.0
20260510084046 60 318 4.0 14.0 0.00 0.00 0.00 63 1015.0
20260510083552 60 26 7.0 14.0 0.00 0.00 0.00 61 1015.1
20260510083034 60 19 6.0 12.0 0.00 0.00 0.00 62 1015.2
20260510082621 59 90 7.0 14.0 0.00 0.00 0.00 61 1015.3
20260510082040 59 25 6.0 14.0 0.00 0.00 0.00 60 1015.3
20260510081544 59 14 4.0 10.0 0.00 0.00 0.00 63 1015.3
20260510081030 58 40 6.0 11.0 0.00 0.00 0.00 61 1015.3
20260510080547 58 334 6.0 13.0 0.00 0.00 0.00 60 1015.4
20260510080041 57 17 6.0 14.0 0.00 0.00 0.00 65 1015.3
20260510075549 57 53 6.0 14.0 0.00 0.00 0.00 64 1015.3
20260510075045 57 39 5.0 10.0 0.00 0.00 0.00 69 1015.4
20260510074535 56 25 4.0 9.0 0.00 0.00 0.00 68 1015.4
20260510074043 56 48 5.0 9.0 0.00 0.00 0.00 70 1015.4
20260510073539 56 5 5.0 9.0 0.00 0.00 0.00 72 1015.4
20260510073030 55 22 4.0 9.0 0.00 0.00 0.00 73 1015.4
20260510072530 55 360 4.0 12.0 0.00 0.00 0.00 73 1015.4
20260510072043 55 351 5.0 12.0 0.00 0.00 0.00 76 1015.4
20260510071606 55 15 5.0 9.0 0.00 0.00 0.00 78 1015.5
20260510071034 54 9 3.0 7.0 0.00 0.00 0.00 80 1015.4
20260510070542 54 15 3.0 7.0 0.00 0.00 0.00 80 1015.4
20260510070057 54 30 3.0 8.0 0.00 0.00 0.00 81 1015.4
20260510065547 53 331 3.0 8.0 0.00 0.00 0.00 82 1015.4
20260510065123 53 5 3.0 7.0 0.00 0.00 0.00 83 1015.4
20260510064545 53 355 3.0 8.0 0.00 0.00 0.00 84 1015.4
20260510064037 52 5 4.0 8.0 0.00 0.00 0.00 85 1015.4
20260510063549 52 348 4.0 9.0 0.00 0.00 0.00 85 1015.4
20260510063033 52 348 4.0 9.0 0.00 0.00 0.00 86 1015.4
20260510062535 51 59 3.0 6.0 0.00 0.00 0.00 87 1015.4
20260510062035 51 343 2.0 5.0 0.00 0.00 0.00 87 1015.5
20260510061605 51 360 1.0 7.0 0.00 0.00 0.00 88 1015.5
20260510061024 50 296 3.0 7.0 0.00 0.00 0.00 88 1015.4
20260510060540 50 22 3.0 7.0 0.00 0.00 0.00 89 1015.5
20260510060056 50 335 3.0 5.0 0.00 0.00 0.00 89 1015.5
20260510055540 49 9 3.0 5.0 0.00 0.00 0.00 89 1015.5
20260510055034 49 44 2.0 5.0 0.00 0.00 0.00 90 1015.5
20260510054555 49 13 1.0 4.0 0.00 0.00 0.00 90 1015.5
20260510054054 48 350 1.0 4.0 0.00 0.00 0.00 90 1015.6
20260510053547 48 5 2.0 3.0 0.00 0.00 0.00 90 1015.6
20260510053045 48 25 1.0 4.0 0.00 0.00 0.00 90 1015.5
20260510052548 48 15 1.0 4.0 0.00 0.00 0.00 91 1015.6
20260510052041 48 14 2.0 4.0 0.00 0.00 0.00 90 1015.5
20260510051530 47 348 1.0 3.0 0.00 0.00 0.00 91 1015.5
20260510051032 47 5 1.0 4.0 0.00 0.00 0.00 91 1015.5
20260510050600 47 11 1.0 4.0 0.00 0.00 0.00 91 1015.5
20260510050034 47 5 1.0 3.0 0.00 0.00 0.00 91 1015.4
20260510045541 47 355 1.0 3.0 0.00 0.00 0.00 91 1015.4
20260510045035 47 355 0.0 3.0 0.00 0.00 0.00 91 1015.5
20260510044625 47 338 1.0 3.0 0.00 0.00 0.00 91 1015.4
20260510044058 47 350 0.0 2.0 0.00 0.00 0.00 91 1015.5
20260510043613 47 343 0.0 2.0 0.00 0.00 0.00 91 1015.5
20260510043029 47 355 1.0 4.0 0.00 0.00 0.00 91 1015.4
20260510042600 47 346 0.0 4.0 0.00 0.00 0.00 91 1015.4
20260510042041 47 5 2.0 4.0 0.00 0.00 0.00 91 1015.4
20260510041535 47 355 1.0 5.0 0.00 0.00 0.00 91 1015.3
20260510041040 47 340 2.0 7.0 0.00 0.00 0.00 91 1015.3
20260510040548 47 326 3.0 7.0 0.00 0.00 0.00 91 1015.3
20260510040036 47 11 2.0 5.0 0.00 0.00 0.00 91 1015.2
20260510035531 47 5 3.0 5.0 0.00 0.00 0.00 91 1015.2
20260510035037 47 360 1.0 6.0 0.00 0.00 0.00 91 1015.3
20260510034549 47 351 2.0 6.0 0.00 0.00 0.00 91 1015.3
20260510034030 47 332 1.0 5.0 0.00 0.00 0.00 91 1015.3
20260510033537 47 347 2.0 5.0 0.00 0.00 0.00 91 1015.4
20260510033039 47 13 1.0 4.0 0.00 0.00 0.00 91 1015.4
20260510032532 47 326 2.0 4.0 0.00 0.00 0.00 90 1015.4
20260510032029 48 323 1.0 3.0 0.00 0.00 0.00 90 1015.4
20260510031554 48 329 1.0 3.0 0.00 0.00 0.00 90 1015.5
20260510031036 48 342 2.0 3.0 0.00 0.00 0.00 90 1015.5
20260510030555 48 341 1.0 4.0 0.00 0.00 0.00 90 1015.5
20260510030038 48 351 2.0 5.0 0.00 0.00 0.00 90 1015.6
20260510025534 48 24 2.0 5.0 0.00 0.00 0.00 90 1015.6
20260510025037 48 342 2.0 4.0 0.00 0.00 0.00 90 1015.7
20260510024603 48 346 1.0 3.0 0.00 0.00 0.00 90 1015.8
20260510024035 48 342 1.0 3.0 0.00 0.00 0.00 90 1015.8
20260510023549 48 323 1.0 3.0 0.00 0.00 0.00 89 1015.8
20260510023030 48 334 1.0 3.0 0.00 0.00 0.00 89 1015.8
20260510022542 48 313 1.0 4.0 0.00 0.00 0.00 89 1015.7
20260510022036 48 304 1.0 4.0 0.00 0.00 0.00 89 1015.7
20260510021549 48 350 0.0 3.0 0.00 0.00 0.00 89 1015.7
20260510021052 49 355 1.0 4.0 0.00 0.00 0.00 89 1015.7
20260510020558 49 355 1.0 4.0 0.00 0.00 0.00 89 1015.7
20260510020028 49 332 1.0 5.0 0.00 0.00 0.00 88 1015.7
20260510015544 49 355 1.0 5.0 0.00 0.00 0.00 88 1015.7
20260510015104 49 360 2.0 4.0 0.00 0.00 0.00 88 1015.8
20260510014559 49 11 1.0 4.0 0.00 0.00 0.00 88 1015.8
20260510014051 49 14 2.0 4.0 0.00 0.00 0.00 88 1015.9
20260510013550 49 336 1.0 4.0 0.00 0.00 0.00 88 1015.9
20260510013059 49 347 1.0 3.0 0.00 0.00 0.00 88 1015.8
20260510012544 49 338 1.0 3.0 0.00 0.00 0.00 88 1015.8
20260510012037 49 351 1.0 4.0 0.00 0.00 0.00 88 1015.9
20260510011603 49 339 1.0 4.0 0.00 0.00 0.00 88 1015.8
20260510011042 49 329 1.0 3.0 0.00 0.00 0.00 88 1015.8
20260510010555 49 5 2.0 3.0 0.00 0.00 0.00 88 1015.8
20260510010053 49 17 1.0 3.0 0.00 0.00 0.00 88 1015.8
20260510005539 50 355 1.0 3.0 0.00 0.00 0.00 88 1015.9
20260510005103 50 350 1.0 3.0 0.00 0.00 0.00 88 1015.9
20260510004543 50 349 1.0 3.0 0.00 0.00 0.00 88 1016.0
20260510004025 50 21 1.0 3.0 0.00 0.00 0.00 87 1016.0
20260510003540 50 5 1.0 2.0 0.00 0.00 0.00 87 1016.0
20260510003059 50 349 1.0 4.0 0.00 0.00 0.00 87 1016.0
20260510002626 50 324 2.0 4.0 0.00 0.00 0.00 87 1016.1
20260510002040 50 5 1.0 3.0 0.00 0.00 0.00 87 1016.1
20260510001553 50 360 1.0 3.0 0.00 0.00 0.00 87 1016.1
20260510001042 50 13 1.0 3.0 0.00 0.00 0.00 86 1016.1
20260510000537 50 5 1.0 4.0 0.00 0.00 0.00 86 1016.1
20260510000035 50 342 1.0 4.0 0.00 0.00 0.00 86 1016.1
20260509235555 50 325 2.0 6.0 0.00 0.00 0.00 86 1016.2
20260509235035 50 360 1.0 6.0 0.00 0.00 0.00 87 1016.2